Vorticity
10 10 10 10 10 10 10 10 11 12 13 13 14 13 13 13 13 12 13 13 12 12 12 11 11 11 11 11 11 11 11 11 12 12 13 13 12 11 10 9 8 7
11 11 11 11 12 12 12 12 12 13 13 13 13 13 13 13 12 12 12 12 11 12 12 12 12 12 12 12 12 12 12 12 12 12 12 12 10 9 8 7 7 6
15 15 14 14 14 14 14 13 13 12 12 12 11 12 11 11 11 11 11 11 11 11 12 12 12 11 11 11 11 12 12 12 12 12 11 10 8 7 7 6 7 7
14 14 14 14 13 13 12 13 12 12 12 12 12 11 11 11 11 12 12 12 11 11 11 11 10 10 10 11 12 12 12 12 11 10 9 8 7 6 7 7 7 7
13 13 12 12 11 10 11 11 12 12 12 12 13 12 12 12 11 12 11 10 10 10 9 9 9 10 10 11 12 12 11 11 9 8 7 7 8 7 7 7 7 8
13 11 11 10 10 10 10 11 10 10 11 12 13 12 12 11 11 11 10 9 10 9 10 11 11 11 11 11 11 10 9 8 7 7 8 8 8 7 7 7 7 8
10 10 11 10 11 12 12 11 9 9 10 10 11 10 10 10 9 9 9 10 10 11 11 12 12 12 12 10 10 8 8 8 8 9 8 8 8 7 7 6 5 6
10 11 12 11 11 12 12 11 10 10 10 9 8 8 8 8 8 9 10 10 11 12 12 12 12 11 10 9 8 8 8 9 9 8 7 7 7 6 7 6 4 4
13 13 13 12 11 12 11 11 10 10 9 8 8 9 9 9 10 10 11 12 12 12 11 11 10 9 8 8 8 8 9 8 7 7 6 6 6 5 5 5 4 4
13 14 13 12 10 9 9 9 9 8 9 9 10 10 11 12 12 12 12 12 11 11 11 10 9 8 8 8 9 8 8 7 7 6 5 5 5 4 4 4 4 5
14 14 12 10 8 8 8 8 8 9 9 10 11 11 11 12 12 12 11 11 11 10 9 9 9 9 9 8 8 8 7 6 6 5 5 4 4 4 4 4 5 5
13 11 9 8 7 7 8 8 9 10 10 11 11 11 11 12 12 11 11 10 10 9 9 9 9 9 8 7 7 7 7 6 5 4 4 4 4 4 4 4 5 6
9 7 7 7 8 9 10 10 11 11 11 11 11 11 11 11 10 10 9 9 9 9 9 9 8 7 6 6 7 7 6 5 4 4 4 4 4 4 4 5 6 5
6 6 7 8 10 11 11 12 12 11 10 10 10 11 10 10 10 9 9 9 10 10 9 8 7 6 6 6 6 6 5 4 4 3 3 4 4 4 5 5 5 5
7 7 9 10 11 11 10 10 10 10 10 9 9 10 9 9 9 9 10 11 10 9 8 7 6 6 6 7 6 5 4 3 3 3 4 4 4 5 6 6 5 5
7 7 9 10 9 9 9 9 9 9 9 9 9 9 9 9 10 10 11 10 9 8 7 6 6 7 7 7 5 4 3 3 4 5 5 4 3 4 5 5 5 7
7 8 9 9 8 8 9 9 10 9 8 9 9 9 9 10 10 10 10 8 7 7 6 6 7 6 6 5 4 3 3 3 4 5 5 5 5 5 4 4 7 12
8 9 9 8 8 8 9 10 9 9 9 9 9 9 10 10 10 9 8 7 7 6 6 7 7 5 5 4 3 4 4 4 4 4 4 4 6 6 4 7 14 21
9 9 9 8 9 10 10 10 10 10 11 10 10 11 11 10 8 7 7 7 6 6 7 7 5 4 4 3 4 4 5 6 5 3 3 3 3 2 4 12 22 29
8 9 8 8 9 10 10 11 11 11 10 10 11 12 10 8 6 6 7 7 6 7 7 6 5 4 4 3 4 5 5 6 5 4 4 3 2 2 8 21 32 40
9 9 9 10 10 11 11 11 11 11 11 11 12 9 7 6 6 6 7 7 7 7 6 5 5 4 4 4 5 6 6 5 5 6 5 3 3 7 18 34 45 48
10 10 10 10 11 11 12 11 11 12 11 10 10 7 6 7 7 7 8 7 7 6 5 5 5 4 5 6 5 5 5 5 6 6 3 3 7 17 33 48 51 42
10 10 10 10 11 12 12 11 11 11 10 9 8 6 6 7 7 8 8 7 7 6 5 5 4 5 6 5 5 5 5 7 7 4 2 6 15 32 50 54 42 25
9 9 10 11 12 12 11 11 11 10 9 7 6 6 6 7 8 8 8 7 5 5 5 5 5 6 6 6 7 6 7 8 5 1 4 12 27 50 59 44 23 13
9 10 11 12 12 12 11 11 10 9 8 7 6 7 7 7 8 8 7 6 5 5 6 6 6 6 6 8 8 6 7 6 2 3 10 21 44 63 51 23 10 13
10 11 11 12 12 12 12 11 9 8 8 7 6 7 7 8 8 7 7 6 6 6 6 6 7 7 8 8 6 6 6 3 2 9 18 35 59 59 31 9 11 15
Height
5623 5621 5619 5618 5616 5614 5612 5611 5609 5607 5605 5603 5601 5599 5597 5596 5594 5592 5590 5589 5587 5585 5583 5581 5579 5577 5575 5572 5570 5568 5565 5563 5560 5557 5554 5552 5550 5547 5544 5542 5540 5537
5615 5613 5611 5610 5608 5606 5604 5603 5601 5599 5597 5596 5593 5591 5590 5588 5586 5585 5583 5581 5579 5577 5575 5573 5571 5569 5566 5564 5562 5559 5557 5555 5552 5549 5546 5544 5542 5539 5536 5534 5531 5529
5607 5605 5604 5602 5600 5598 5596 5595 5593 5591 5590 5588 5586 5584 5582 5581 5579 5577 5575 5574 5572 5570 5568 5566 5563 5561 5558 5555 5553 5551 5549 5546 5543 5540 5537 5535 5534 5531 5528 5526 5522 5520
5599 5597 5595 5594 5592 5590 5589 5587 5586 5584 5582 5581 5579 5577 5575 5573 5571 5570 5568 5566 5564 5562 5560 5558 5555 5553 5550 5547 5545 5543 5541 5538 5535 5533 5529 5527 5526 5523 5520 5518 5514 5511
5591 5589 5587 5586 5584 5583 5581 5580 5578 5577 5575 5573 5571 5570 5568 5566 5564 5562 5560 5558 5556 5554 5552 5550 5547 5545 5543 5540 5537 5535 5533 5531 5528 5525 5522 5519 5518 5515 5512 5509 5506 5502
5584 5582 5580 5579 5577 5576 5574 5572 5571 5569 5567 5566 5564 5562 5560 5558 5556 5554 5552 5550 5548 5546 5544 5542 5540 5538 5535 5533 5531 5529 5526 5523 5521 5518 5515 5512 5510 5507 5505 5502 5498 5494
5577 5575 5573 5571 5570 5568 5567 5565 5563 5562 5560 5558 5556 5554 5552 5550 5549 5547 5545 5543 5541 5539 5537 5535 5533 5531 5529 5526 5524 5522 5519 5516 5514 5511 5508 5505 5502 5499 5497 5494 5490 5485
5570 5568 5566 5564 5563 5561 5559 5558 5556 5554 5552 5550 5548 5547 5545 5543 5541 5539 5537 5535 5533 5532 5530 5528 5526 5524 5521 5520 5517 5515 5513 5509 5507 5504 5500 5497 5494 5491 5488 5485 5482 5477
5563 5561 5559 5557 5555 5554 5552 5550 5548 5547 5545 5543 5541 5539 5537 5535 5534 5532 5530 5528 5526 5524 5523 5521 5519 5517 5515 5513 5511 5509 5506 5503 5500 5497 5493 5489 5486 5482 5479 5476 5472 5468
5555 5554 5552 5550 5548 5547 5545 5543 5541 5540 5538 5536 5534 5532 5530 5528 5526 5524 5522 5521 5519 5517 5516 5514 5512 5510 5508 5506 5504 5502 5499 5496 5492 5489 5485 5482 5478 5474 5470 5467 5463 5459
5548 5547 5545 5543 5542 5540 5538 5536 5534 5532 5530 5529 5527 5525 5523 5521 5519 5517 5515 5514 5512 5510 5509 5507 5505 5503 5502 5500 5498 5495 5492 5489 5485 5481 5477 5473 5469 5465 5462 5458 5454 5450
5542 5540 5538 5537 5535 5533 5531 5529 5527 5525 5523 5522 5520 5518 5516 5514 5512 5510 5509 5507 5505 5504 5502 5500 5498 5497 5495 5493 5491 5488 5485 5482 5478 5474 5469 5465 5461 5457 5453 5449 5445 5441
5535 5534 5532 5530 5528 5526 5524 5522 5520 5518 5516 5514 5513 5511 5509 5507 5505 5504 5502 5500 5498 5497 5495 5493 5491 5489 5487 5486 5483 5481 5478 5474 5470 5466 5461 5457 5452 5448 5444 5440 5436 5432
5529 5527 5525 5523 5521 5519 5517 5515 5513 5511 5509 5508 5506 5504 5502 5500 5499 5497 5495 5493 5491 5490 5488 5486 5484 5482 5480 5478 5476 5473 5470 5467 5463 5458 5454 5449 5444 5439 5435 5431 5427 5423
5522 5520 5518 5516 5514 5512 5510 5508 5506 5504 5503 5501 5499 5497 5495 5493 5492 5490 5488 5486 5485 5483 5480 5478 5476 5474 5473 5471 5468 5466 5463 5459 5455 5451 5446 5442 5436 5431 5426 5422 5418 5414
5515 5513 5511 5509 5507 5505 5503 5501 5499 5498 5496 5494 5492 5490 5488 5486 5485 5483 5481 5479 5477 5475 5473 5471 5469 5467 5465 5463 5461 5458 5456 5452 5448 5443 5439 5435 5429 5424 5418 5413 5409 5404
5508 5506 5505 5503 5501 5499 5497 5495 5493 5491 5489 5487 5485 5483 5481 5479 5477 5475 5474 5472 5470 5467 5465 5463 5461 5459 5457 5455 5453 5451 5448 5445 5441 5436 5430 5426 5421 5416 5411 5404 5399 5394
5501 5500 5498 5496 5494 5492 5490 5488 5486 5484 5482 5480 5478 5476 5474 5472 5470 5468 5467 5465 5462 5460 5457 5455 5453 5451 5449 5447 5444 5442 5440 5439 5435 5429 5423 5417 5412 5407 5402 5396 5391 5385
5494 5493 5491 5489 5487 5485 5483 5481 5479 5477 5475 5473 5471 5469 5467 5465 5463 5461 5459 5457 5455 5452 5449 5447 5444 5443 5441 5439 5436 5434 5431 5430 5427 5422 5416 5410 5404 5398 5393 5388 5383 5378
5487 5485 5484 5482 5480 5478 5476 5474 5472 5470 5468 5466 5464 5462 5460 5458 5456 5454 5452 5449 5447 5445 5442 5439 5436 5435 5433 5430 5428 5426 5423 5421 5418 5413 5408 5403 5396 5390 5385 5380 5375 5370
5480 5478 5476 5474 5472 5471 5469 5466 5464 5462 5460 5458 5457 5454 5453 5451 5449 5447 5444 5441 5439 5437 5434 5431 5428 5426 5425 5422 5419 5417 5414 5412 5408 5403 5399 5394 5387 5381 5376 5371 5367 5363
5473 5471 5468 5467 5465 5463 5461 5459 5457 5455 5453 5451 5449 5447 5445 5444 5441 5439 5437 5434 5431 5429 5427 5423 5420 5418 5417 5414 5410 5408 5406 5403 5399 5394 5390 5385 5378 5372 5367 5362 5358 5356
5465 5463 5461 5459 5457 5455 5453 5451 5449 5447 5446 5444 5442 5440 5438 5436 5434 5431 5429 5426 5423 5421 5420 5416 5412 5408 5408 5405 5401 5399 5397 5394 5391 5386 5380 5375 5369 5363 5358 5354 5351 5350
5457 5455 5453 5451 5450 5447 5445 5444 5442 5440 5438 5436 5435 5433 5431 5429 5427 5424 5420 5418 5416 5413 5411 5409 5404 5399 5398 5396 5392 5389 5388 5385 5382 5377 5372 5366 5360 5355 5350 5347 5346 5345
5449 5448 5446 5444 5442 5440 5438 5436 5434 5432 5430 5429 5427 5425 5423 5421 5419 5416 5413 5409 5408 5405 5403 5400 5396 5391 5388 5387 5384 5380 5378 5376 5373 5369 5363 5357 5352 5348 5344 5341 5340 5340
5442 5440 5438 5436 5434 5432 5430 5428 5426 5424 5422 5421 5420 5418 5416 5413 5410 5408 5405 5401 5398 5397 5394 5391 5388 5384 5379 5377 5375 5372 5368 5366 5363 5359 5354 5350 5345 5341 5338 5337 5335 5334